Location: Croydon
(51.3762°N, 0.0982°W)
Time: 08:41:58
(UTC+00:00)

Altair - Pass Details

Date: 21 November 2019
Orbit: 1502 x 1682 km, 47.2° (Epoch: 06 December)

Event Time Altitude Azimuth Distance (km) Brightness Sun altitude
Rises 03:09:06 0° 234° (SW) 4,645 - -39.5°
Reaches altitude 10° 03:12:12 10° 230° (SW) 3,656 - -39.1°
Maximum altitude 03:20:59 53° 156° (SSE) 1,787 - -37.8°
Exits shadow 03:21:09 53° 153° (SSE) 1,788 7.7 -37.7°
Drops below altitude 10° 03:29:50 10° 83° (E) 3,685 10.2 -36.4°
Sets 03:32:58 0° 79° (E) 4,685 11.0 -36.0°
